CW0133 Weather Reports


Display with metric or nautical units.
time (UTC)temp
F
wind
direction
speed
MPH
gust
MPH
rain 1hr
in
rain 24hr
in
rain mn
in
humidity
%
barometer
mb
20260902173503 99 137 2.0 8.0 0.00 0.00 0.00 44 1015.4
20260902173003 98 168 4.0 8.0 0.00 0.00 0.00 45 1015.6
20260902172503 98 208 5.0 14.0 0.00 0.00 0.00 44 1015.5
20260902172004 97 197 6.0 14.0 0.00 0.00 0.00 46 1015.7
20260902171503 97 198 5.0 13.0 0.00 0.00 0.00 47 1015.8
20260902171004 96 205 5.0 14.0 0.00 0.00 0.00 47 1015.9
20260902170525 96 189 5.0 14.0 0.00 0.00 0.00 48 1016.0
20260902170004 96 175 6.0 14.0 0.00 0.00 0.00 50 1016.0
20260902165504 95 183 7.0 14.0 0.00 0.00 0.00 48 1016.1
20260902165004 95 205 5.0 13.0 0.00 0.00 0.00 49 1016.1
20260902164504 94 203 5.0 11.0 0.00 0.00 0.00 50 1016.2
20260902164003 94 200 5.0 12.0 0.00 0.00 0.00 50 1016.2
20260902163504 93 205 4.0 12.0 0.00 0.00 0.00 51 1016.2
20260902163004 93 202 4.0 8.0 0.00 0.00 0.00 54 1016.2
20260902162504 92 208 4.0 8.0 0.00 0.00 0.00 54 1016.3
20260902162004 92 206 4.0 11.0 0.00 0.00 0.00 54 1016.3
20260902161504 92 227 4.0 11.0 0.00 0.00 0.00 54 1016.3
20260902161024 91 237 4.0 11.0 0.00 0.00 0.00 57 1016.4
20260902160503 91 212 4.0 8.0 0.00 0.00 0.00 57 1016.4
20260902160005 90 209 4.0 8.0 0.00 0.00 0.00 60 1016.3
20260902155504 90 247 4.0 8.0 0.00 0.00 0.00 59 1016.3
20260902155004 90 229 5.0 13.0 0.00 0.00 0.00 60 1016.3
20260902154503 89 198 6.0 13.0 0.00 0.00 0.00 60 1016.3
20260902154003 89 196 6.0 13.0 0.00 0.00 0.00 62 1016.3
20260902153503 89 195 6.0 13.0 0.00 0.00 0.00 63 1016.2
20260902153004 88 197 6.0 14.0 0.00 0.00 0.00 64 1016.3
20260902152503 88 197 6.0 17.0 0.00 0.00 0.00 64 1016.3
20260902152003 87 196 7.0 17.0 0.00 0.00 0.00 66 1016.2
20260902151503 87 207 6.0 16.0 0.00 0.00 0.00 66 1016.2
20260902151003 86 219 4.0 10.0 0.00 0.00 0.00 70 1016.2
20260902150503 85 202 5.0 10.0 0.00 0.00 0.00 72 1016.2
20260902150003 85 187 6.0 12.0 0.00 0.00 0.00 73 1016.2
20260902145524 84 194 6.0 12.0 0.00 0.00 0.00 73 1016.2
20260902145024 84 205 5.0 11.0 0.00 0.00 0.00 75 1016.3
20260902144503 83 188 6.0 12.0 0.00 0.00 0.00 76 1016.4
20260902144003 83 187 6.0 12.0 0.00 0.00 0.00 77 1016.5
20260902143503 82 192 5.0 10.0 0.00 0.00 0.00 79 1016.6
20260902143003 82 185 5.0 10.0 0.00 0.00 0.00 81 1016.6
20260902142503 81 188 4.0 8.0 0.00 0.00 0.00 82 1016.6
20260902142003 80 197 4.0 8.0 0.00 0.00 0.00 83 1016.6
20260902141503 80 196 5.0 8.0 0.00 0.00 0.00 84 1016.6
20260902141003 79 193 5.0 8.0 0.00 0.00 0.00 85 1016.6
20260902140503 78 186 4.0 8.0 0.00 0.00 0.00 86 1016.6
20260902140003 78 192 2.0 8.0 0.00 0.00 0.00 87 1016.6
20260902135503 77 205 4.0 7.0 0.00 0.00 0.00 88 1016.5
20260902135004 77 197 4.0 7.0 0.00 0.00 0.00 88 1016.5
20260902134503 76 193 5.0 10.0 0.00 0.00 0.00 89 1016.5
20260902134024 76 195 4.0 10.0 0.00 0.00 0.00 90 1016.5
20260902133503 75 191 1.0 7.0 0.00 0.00 0.00 90 1016.4
20260902133024 75 192 1.0 5.0 0.00 0.00 0.00 90 1016.4
20260902132524 74 192 0.0 1.0 0.00 0.00 0.00 90 1016.4
20260902132003 74 192 0.0 1.0 0.00 0.00 0.00 89 1016.2
20260902131503 74 192 0.0 2.0 0.00 0.00 0.00 88 1016.1
20260902131003 73 192 0.0 2.0 0.00 0.00 0.00 88 1016.1
20260902130503 73 192 0.0 1.0 0.00 0.00 0.00 87 1016.0
20260902130003 73 192 0.0 1.0 0.00 0.00 0.00 87 1016.0
20260902125524 73 192 0.0 1.0 0.00 0.00 0.00 87 1016.0
20260902125003 73 192 0.0 1.0 0.00 0.00 0.00 86 1016.0
20260902124504 73 0 0.0 0.0 0.00 0.00 0.00 86 1015.9
20260902124003 73 0 0.0 0.0 0.00 0.00 0.00 85 1015.8
20260902123503 73 0 0.0 0.0 0.00 0.00 0.00 85 1015.8
20260902123003 73 0 0.0 0.0 0.00 0.00 0.00 85 1015.8
20260902122504 73 0 0.0 0.0 0.00 0.00 0.00 85 1015.8
20260902122025 73 0 0.0 0.0 0.00 0.00 0.00 85 1015.7
20260902121504 73 0 0.0 0.0 0.00 0.00 0.00 85 1015.6
20260902121004 73 0 0.0 0.0 0.00 0.00 0.00 85 1015.6
20260902120525 73 0 0.0 0.0 0.00 0.00 0.00 85 1015.7
20260902120004 73 0 0.0 0.0 0.00 0.00 0.00 85 1015.7
20260902115504 73 192 0.0 1.0 0.00 0.00 0.00 85 1015.6
20260902115004 74 192 0.0 1.0 0.00 0.00 0.00 85 1015.6
20260902114504 74 0 0.0 0.0 0.00 0.00 0.00 85 1015.7
20260902114004 74 0 0.0 0.0 0.00 0.00 0.00 84 1015.6
20260902113526 74 192 0.0 1.0 0.00 0.00 0.00 84 1015.6
20260902113025 74 192 0.0 1.0 0.00 0.00 0.00 84 1015.7
20260902112504 74 192 0.0 1.0 0.00 0.00 0.00 84 1015.6
20260902112004 74 192 1.0 1.0 0.00 0.00 0.00 84 1015.5
20260902111525 74 192 1.0 1.0 0.00 0.00 0.00 84 1015.5
20260902111004 74 192 0.0 1.0 0.00 0.00 0.00 84 1015.5
20260902110504 74 0 0.0 0.0 0.00 0.00 0.00 83 1015.5
20260902110007 74 192 0.0 1.0 0.00 0.00 0.00 83 1015.5
20260902105525 74 192 0.0 1.0 0.00 0.00 0.00 83 1015.5
20260902105004 74 192 0.0 1.0 0.00 0.00 0.00 83 1015.5
20260902104525 75 192 0.0 1.0 0.00 0.00 0.00 83 1015.5
20260902104025 75 0 0.0 0.0 0.00 0.00 0.00 83 1015.6
20260902103504 75 192 0.0 1.0 0.00 0.00 0.00 83 1015.6
20260902103004 75 192 0.0 1.0 0.00 0.00 0.00 83 1015.5
20260902102504 75 192 0.0 1.0 0.00 0.00 0.00 82 1015.4
20260902102004 75 192 0.0 1.0 0.00 0.00 0.00 82 1015.5
20260902101504 75 192 0.0 1.0 0.00 0.00 0.00 82 1015.4
20260902101004 75 192 1.0 2.0 0.00 0.00 0.00 82 1015.3
20260902100504 75 192 1.0 2.0 0.00 0.00 0.00 82 1015.3
20260902100004 76 192 1.0 2.0 0.00 0.00 0.00 82 1015.4
20260902095504 76 192 1.0 2.0 0.00 0.00 0.00 82 1015.2
20260902095025 76 192 1.0 2.0 0.00 0.00 0.00 81 1015.2
20260902094525 76 192 1.0 2.0 0.00 0.00 0.00 81 1015.3
20260902094004 76 192 1.0 4.0 0.00 0.00 0.00 81 1015.3
20260902093525 76 194 2.0 4.0 0.00 0.00 0.00 81 1015.3
20260902093004 76 195 1.0 4.0 0.00 0.00 0.00 81 1015.3
20260902092504 76 195 1.0 4.0 0.00 0.00 0.00 81 1015.3
20260902092004 76 195 1.0 2.0 0.00 0.00 0.00 81 1015.4
20260902091525 76 195 1.0 2.0 0.00 0.00 0.00 80 1015.3
20260902091004 76 195 1.0 2.0 0.00 0.00 0.00 80 1015.4
20260902090504 76 195 1.0 2.0 0.00 0.00 0.00 80 1015.4
20260902090005 76 195 0.0 2.0 0.00 0.00 0.00 80 1015.4
20260902085525 77 195 0.0 1.0 0.00 0.00 0.00 80 1015.4
20260902085004 77 195 1.0 2.0 0.00 0.00 0.00 79 1015.4
20260902084504 77 195 1.0 2.0 0.00 0.00 0.00 79 1015.4
20260902084004 77 195 1.0 2.0 0.00 0.00 0.00 79 1015.4
20260902083503 77 195 1.0 2.0 0.00 0.00 0.00 79 1015.4
20260902083004 77 195 0.0 2.0 0.00 0.00 0.00 79 1015.4
20260902082504 77 195 0.0 1.0 0.00 0.00 0.00 78 1015.5
20260902082004 78 195 0.0 1.0 0.00 0.00 0.00 78 1015.5
20260902081503 78 195 0.0 1.0 0.00 0.00 0.00 78 1015.5
20260902081003 78 195 0.0 1.0 0.00 0.00 0.00 78 1015.5
20260902080504 78 195 0.0 1.0 0.00 0.00 0.00 78 1015.6
20260902080004 78 195 0.0 1.0 0.00 0.00 0.00 78 1015.5
20260902075524 78 0 0.0 0.0 0.00 0.00 0.00 77 1015.6
20260902075004 79 0 0.0 0.0 0.00 0.00 0.00 77 1015.6
20260902074525 79 195 0.0 1.0 0.00 0.00 0.00 77 1015.4
20260902074004 79 195 0.0 1.0 0.00 0.00 0.00 76 1015.5
20260902073504 79 195 0.0 1.0 0.00 0.00 0.00 75 1015.6
20260902073025 80 195 0.0 1.0 0.00 0.00 0.00 75 1015.6
20260902072504 80 195 0.0 1.0 0.00 0.00 0.00 75 1015.6
20260902072025 80 195 0.0 2.0 0.00 0.00 0.00 75 1015.6
20260902071525 80 195 1.0 2.0 0.00 0.00 0.00 75 1015.6
20260902071025 80 195 1.0 2.0 0.00 0.00 0.00 75 1015.6
20260902070504 80 195 1.0 2.0 0.00 0.00 0.00 75 1015.6
20260902070005 81 195 1.0 2.0 0.00 0.00 0.00 74 1015.6
20260902065504 81 195 1.0 2.0 0.00 0.00 0.00 74 1015.6
20260902065003 81 195 0.0 2.0 0.00 0.00 0.00 74 1015.7
20260902064504 81 195 1.0 2.0 0.00 0.00 0.00 73 1015.6
20260902064004 81 195 1.0 4.0 0.00 0.00 0.00 73 1015.6
20260902063504 82 195 1.0 4.0 0.00 0.00 0.00 73 1015.5
20260902063003 82 195 1.0 4.0 0.00 0.00 0.00 73 1015.6
20260902062503 82 195 0.0 2.0 0.00 0.00 0.00 73 1015.6
20260902062004 82 194 1.0 4.0 0.00 0.00 0.00 73 1015.7
20260902061504 82 192 1.0 4.0 0.00 0.00 0.00 72 1015.6
20260902061045 82 191 1.0 4.0 0.00 0.00 0.00 72 1015.6
20260902060504 82 191 1.0 4.0 0.00 0.00 0.00 72 1015.6
20260902060003 83 191 1.0 4.0 0.00 0.00 0.00 72 1015.6
20260902055504 83 191 2.0 4.0 0.00 0.00 0.00 72 1015.6
20260902055004 83 191 2.0 4.0 0.00 0.00 0.00 72 1015.6
20260902054525 83 189 2.0 6.0 0.00 0.00 0.00 71 1015.6
20260902054004 83 186 2.0 6.0 0.00 0.00 0.00 72 1015.6
20260902053503 83 183 2.0 6.0 0.00 0.00 0.00 71 1015.7
20260902053004 83 179 4.0 8.0 0.00 0.00 0.00 71 1015.6
20260902052525 84 172 4.0 8.0 0.00 0.00 0.00 71 1015.6
20260902052003 84 174 4.0 6.0 0.00 0.00 0.00 70 1015.6
20260902051503 84 176 4.0 6.0 0.00 0.00 0.00 70 1015.6
20260902051003 84 176 4.0 6.0 0.00 0.00 0.00 70 1015.6
20260902050504 84 168 4.0 6.0 0.00 0.00 0.00 69 1015.6
20260902050007 84 167 2.0 7.0 0.00 0.00 0.00 69 1015.6
20260902045503 85 172 2.0 7.0 0.00 0.00 0.00 68 1015.7
20260902045003 85 162 2.0 7.0 0.00 0.00 0.00 68 1015.6
20260902044503 85 146 2.0 7.0 0.00 0.00 0.00 67 1015.6
20260902044003 85 137 2.0 5.0 0.00 0.00 0.00 67 1015.5
20260902043524 85 130 2.0 5.0 0.00 0.00 0.00 67 1015.6
20260902043003 85 134 2.0 6.0 0.00 0.00 0.00 67 1015.6
20260902042503 85 141 2.0 6.0 0.00 0.00 0.00 66 1015.6
20260902042024 86 143 4.0 8.0 0.00 0.00 0.00 66 1015.6
20260902041504 86 143 5.0 10.0 0.00 0.00 0.00 66 1015.7
20260902041003 86 142 4.0 10.0 0.00 0.00 0.00 66 1015.6
20260902040503 86 157 4.0 6.0 0.00 0.00 0.00 65 1015.6
20260902040003 86 155 4.0 8.0 0.00 0.00 0.00 65 1015.5
20260902035503 86 138 5.0 10.0 0.00 0.00 0.00 65 1015.5
20260902035003 86 133 5.0 12.0 0.00 0.00 0.00 65 1015.4
20260902034503 86 130 4.0 12.0 0.00 0.00 0.00 64 1015.5
20260902034024 86 133 2.0 6.0 0.00 0.00 0.00 63 1015.4
20260902033503 86 137 4.0 6.0 0.00 0.00 0.00 62 1015.3
20260902033024 87 130 2.0 6.0 0.00 0.00 0.00 62 1015.3
20260902032503 87 116 2.0 5.0 0.00 0.00 0.00 62 1015.3
20260902032003 87 108 2.0 8.0 0.00 0.00 0.00 61 1015.1
20260902031504 87 112 4.0 8.0 0.00 0.00 0.00 61 1015.0
20260902031024 87 114 4.0 8.0 0.00 0.00 0.00 61 1014.9
20260902030503 87 118 4.0 8.0 0.00 0.00 0.00 60 1014.8
20260902030004 88 123 4.0 8.0 0.00 0.00 0.00 59 1014.8
20260902025503 88 120 2.0 8.0 0.00 0.00 0.00 58 1014.7
20260902025003 88 120 2.0 5.0 0.00 0.00 0.00 58 1014.5
20260902024503 88 118 2.0 5.0 0.00 0.00 0.00 58 1014.4
20260902024003 88 114 2.0 5.0 0.00 0.00 0.00 57 1014.2
20260902023524 89 111 2.0 6.0 0.00 0.00 0.00 57 1014.2
20260902023003 89 111 2.0 6.0 0.00 0.00 0.00 57 1014.1
20260902022503 89 120 2.0 5.0 0.00 0.00 0.00 56 1014.0
20260902022003 89 127 2.0 5.0 0.00 0.00 0.00 55 1013.8
20260902021503 90 126 2.0 5.0 0.00 0.00 0.00 55 1013.8
20260902021003 90 124 2.0 6.0 0.00 0.00 0.00 55 1013.7
20260902020503 90 125 4.0 6.0 0.00 0.00 0.00 55 1013.8
20260902020003 90 121 4.0 8.0 0.00 0.00 0.00 54 1013.7
20260902015525 90 125 4.0 8.0 0.00 0.00 0.00 54 1013.7
20260902015003 91 125 4.0 8.0 0.00 0.00 0.00 53 1013.7
20260902014503 91 117 4.0 10.0 0.00 0.00 0.00 53 1013.7
20260902014003 91 122 4.0 10.0 0.00 0.00 0.00 52 1013.5
20260902013503 92 126 4.0 8.0 0.00 0.00 0.00 51 1013.6
20260902013003 92 114 4.0 8.0 0.00 0.00 0.00 51 1013.6
20260902012524 92 112 4.0 8.0 0.00 0.00 0.00 51 1013.4
20260902012003 92 123 4.0 8.0 0.00 0.00 0.00 51 1013.4
20260902011503 92 126 5.0 11.0 0.00 0.00 0.00 51 1013.3
20260902011024 92 124 6.0 11.0 0.00 0.00 0.00 51 1013.2
20260902010503 93 124 6.0 12.0 0.00 0.00 0.00 50 1013.0
20260902010003 93 125 5.0 12.0 0.00 0.00 0.00 50 1013.1
20260902005503 94 130 4.0 10.0 0.00 0.00 0.00 49 1013.1
20260902005003 94 125 4.0 8.0 0.00 0.00 0.00 49 1013.1
20260902004503 94 117 4.0 8.0 0.00 0.00 0.00 49 1013.1
20260902004003 94 119 4.0 10.0 0.00 0.00 0.00 48 1013.1
20260902003503 95 113 5.0 12.0 0.00 0.00 0.00 48 1013.2
20260902003003 95 109 5.0 13.0 0.00 0.00 0.00 48 1013.3
20260902002503 95 110 6.0 13.0 0.00 0.00 0.00 48 1013.4
20260902002004 95 118 6.0 14.0 0.00 0.00 0.00 47 1013.4
20260902001504 96 137 5.0 14.0 0.00 0.00 0.00 47 1013.3
20260902001004 96 146 5.0 8.0 0.00 0.00 0.00 47 1013.2
20260902000504 96 148 6.0 12.0 0.00 0.00 0.00 46 1013.2
20260902000004 96 142 6.0 12.0 0.00 0.00 0.00 46 1013.2
20260901235504 97 132 6.0 12.0 0.00 0.00 0.00 46 1013.2
20260901235004 97 139 6.0 12.0 0.00 0.00 0.00 46 1013.2
20260901234504 97 138 6.0 12.0 0.00 0.00 0.00 45 1013.1
20260901234004 98 128 6.0 12.0 0.00 0.00 0.00 45 1013.1
20260901233504 98 130 6.0 14.0 0.00 0.00 0.00 45 1013.2
20260901233025 98 143 7.0 17.0 0.00 0.00 0.00 44 1013.2
20260901232504 99 142 7.0 17.0 0.00 0.00 0.00 43 1013.1
20260901232004 99 129 6.0 12.0 0.00 0.00 0.00 43 1013.0
20260901231525 100 133 5.0 13.0 0.00 0.00 0.00 42 1013.1
20260901231004 100 126 5.0 13.0 0.00 0.00 0.00 40 1013.0
20260901230504 100 100 5.0 11.0 0.00 0.00 0.00 39 1012.9
20260901230004 100 94 5.0 11.0 0.00 0.00 0.00 39 1013.0
20260901225504 100 90 4.0 10.0 0.00 0.00 0.00 39 1013.0
20260901225004 100 100 5.0 11.0 0.00 0.00 0.00 39 1013.1
20260901224504 101 105 6.0 12.0 0.00 0.00 0.00 39 1013.0
20260901224004 101 101 6.0 16.0 0.00 0.00 0.00 38 1013.0
20260901223504 102 101 7.0 17.0 0.00 0.00 0.00 38 1013.0
20260901223004 102 104 7.0 17.0 0.00 0.00 0.00 37 1013.0
20260901222504 102 92 5.0 11.0 0.00 0.00 0.00 38 1013.0
20260901222004 101 77 4.0 10.0 0.00 0.00 0.00 38 1013.0
20260901221504 101 97 2.0 7.0 0.00 0.00 0.00 38 1013.1
20260901221025 101 114 1.0 6.0 0.00 0.00 0.00 37 1013.0
20260901220525 102 113 2.0 8.0 0.00 0.00 0.00 37 1013.1
20260901220025 102 116 5.0 11.0 0.00 0.00 0.00 36 1013.1
20260901215504 103 108 5.0 11.0 0.00 0.00 0.00 36 1013.2
20260901215004 103 89 4.0 11.0 0.00 0.00 0.00 36 1013.2
20260901214504 103 35 2.0 11.0 0.00 0.00 0.00 36 1013.1
20260901214004 103 358 4.0 7.0 0.00 0.00 0.00 38 1013.1
20260901213504 102 356 4.0 6.0 0.00 0.00 0.00 38 1013.1
20260901213004 102 46 4.0 10.0 0.00 0.00 0.00 37 1013.2
20260901212504 101 121 2.0 10.0 0.00 0.00 0.00 37 1013.3
20260901212004 101 126 2.0 10.0 0.00 0.00 0.00 38 1013.3
20260901211503 101 104 5.0 10.0 0.00 0.00 0.00 38 1013.4
20260901211004 101 106 5.0 11.0 0.00 0.00 0.00 38 1013.5
20260901210504 101 86 4.0 11.0 0.00 0.00 0.00 38 1013.5
20260901210004 102 79 6.0 14.0 0.00 0.00 0.00 39 1013.6
20260901205504 102 86 5.0 14.0 0.00 0.00 0.00 39 1013.8
20260901205004 102 58 4.0 10.0 0.00 0.00 0.00 39 1013.7
20260901204504 101 51 4.0 8.0 0.00 0.00 0.00 40 1013.7
20260901204003 100 102 5.0 12.0 0.00 0.00 0.00 42 1013.9
20260901203504 99 120 4.0 12.0 0.00 0.00 0.00 42 1014.0
20260901203004 98 87 4.0 10.0 0.00 0.00 0.00 42 1014.1
20260901202504 98 105 5.0 11.0 0.00 0.00 0.00 41 1014.1
20260901202004 99 117 4.0 11.0 0.00 0.00 0.00 41 1014.2
20260901201504 98 143 4.0 10.0 0.00 0.00 0.00 44 1014.3
20260901201004 98 143 4.0 10.0 0.00 0.00 0.00 44 1014.4
20260901200503 98 134 4.0 10.0 0.00 0.00 0.00 44 1014.4
20260901200004 98 125 5.0 10.0 0.00 0.00 0.00 43 1014.5
20260901195504 98 114 4.0 10.0 0.00 0.00 0.00 43 1014.6
20260901195004 99 152 2.0 8.0 0.00 0.00 0.00 44 1014.7
20260901194503 99 152 2.0 8.0 0.00 0.00 0.00 43 1014.8
20260901194004 99 149 2.0 5.0 0.00 0.00 0.00 42 1014.8
20260901193504 99 173 2.0 6.0 0.00 0.00 0.00 42 1014.8
20260901193004 99 113 2.0 7.0 0.00 0.00 0.00 42 1014.9
20260901192504 99 57 4.0 7.0 0.00 0.00 0.00 44 1015.0
20260901192004 98 148 2.0 7.0 0.00 0.00 0.00 45 1015.0
20260901191504 98 170 2.0 7.0 0.00 0.00 0.00 44 1015.0
20260901191003 98 132 4.0 7.0 0.00 0.00 0.00 44 1015.2
20260901190504 98 99 2.0 7.0 0.00 0.00 0.00 43 1015.2
20260901190004 99 126 2.0 7.0 0.00 0.00 0.00 44 1015.3
20260901185504 99 105 2.0 8.0 0.00 0.00 0.00 42 1015.5
20260901185004 100 104 2.0 12.0 0.00 0.00 0.00 43 1015.4
20260901184504 101 97 4.0 12.0 0.00 0.00 0.00 41 1015.5
20260901184003 101 124 5.0 12.0 0.00 0.00 0.00 42 1015.6
20260901183504 102 152 5.0 11.0 0.00 0.00 0.00 42 1015.8
20260901183024 101 126 6.0 13.0 0.00 0.00 0.00 42 1015.8
20260901182524 100 126 5.0 13.0 0.00 0.00 0.00 44 1016.0
20260901182004 100 137 5.0 12.0 0.00 0.00 0.00 44 1015.9
20260901181504 99 145 6.0 12.0 0.00 0.00 0.00 45 1016.0
20260901181003 98 145 5.0 13.0 0.00 0.00 0.00 45 1016.1
20260901180503 97 109 2.0 13.0 0.00 0.00 0.00 47 1016.2
20260901180004 97 45 2.0 7.0 0.00 0.00 0.00 47 1016.4
20260901175503 97 59 4.0 7.0 0.00 0.00 0.00 48 1016.5
20260901175003 97 86 5.0 16.0 0.00 0.00 0.00 48 1016.6
20260901174503 97 101 5.0 16.0 0.00 0.00 0.00 49 1016.7
20260901174003 96 99 4.0 17.0 0.00 0.00 0.00 50 1016.7